This is the latest recevied weather packets stored in our database for station/object SP3TOM-10. If no packets are shown the sender has not sent any weather packets the latest 10 day(s).
| Time | Temp. | Humidity | Pressure | Rain* | Wind** | Luminosity | Snow |
|---|---|---|---|---|---|---|---|
| 1778113970 | 15.56° C | 48% | 997.8 hPa | - | - | - | - |
| 1778113070 | 15.56° C | 48% | 997.9 hPa | - | - | - | - |
| 1778112169 | 15.56° C | 48% | 997.9 hPa | - | - | - | - |
| 1778111269 | 15.56° C | 48% | 997.7 hPa | - | - | - | - |
| 1778110369 | 16.11° C | 48% | 997.6 hPa | - | - | - | - |
| 1778109469 | 16.11° C | 48% | 997.6 hPa | - | - | - | - |
| 1778108569 | 16.11° C | 48% | 997.7 hPa | - | - | - | - |
| 1778107668 | 16.11° C | 49% | 997.6 hPa | - | - | - | - |
| 1778106768 | 16.11° C | 48% | 997.6 hPa | - | - | - | - |
| 1778105868 | 16.11° C | 48% | 997.4 hPa | - | - | - | - |
| 1778104968 | 16.67° C | 47% | 997.4 hPa | - | - | - | - |
| 1778104067 | 16.67° C | 47% | 996.9 hPa | - | - | - | - |
| 1778103166 | 16.67° C | 47% | 996.8 hPa | - | - | - | - |
| 1778102266 | 16.67° C | 46% | 996.7 hPa | - | - | - | - |
| 1778101366 | 16.67° C | 46% | 996.8 hPa | - | - | - | - |
| 1778100466 | 17.22° C | 46% | 996.9 hPa | - | - | - | - |
| 1778099566 | 17.22° C | 47% | 996.9 hPa | - | - | - | - |
| 1778098666 | 17.22° C | 47% | 997.1 hPa | - | - | - | - |
| 1778097766 | 17.22° C | 46% | 996.8 hPa | - | - | - | - |
| 1778096865 | 17.78° C | 46% | 996.7 hPa | - | - | - | - |
| 1778095965 | 18.89° C | 43% | 996.5 hPa | - | - | - | - |
| 1778095067 | 18.89° C | 43% | 996.6 hPa | - | - | - | - |
| 1778094166 | 18.89° C | 43% | 996.5 hPa | - | - | - | - |
| 1778093266 | 18.33° C | 46% | 996.5 hPa | - | - | - | - |
| 1778092365 | 18.33° C | 46% | 996.4 hPa | - | - | - | - |
* Rain since midnight (hover to see other rain measurements)
** Current wind speed in m/s (hover to see current wind gust speed)